Back to Previous

Regional Weather Roundup

697 
ASUS44 KLZK 160005
RWRLZK

WEATHER ROUNDUP FOR ARKANSAS
NATIONAL WEATHER SERVICE LITTLE ROCK AR
700 PM CDT MON SEP 15 2014

NOTE: "FAIR" INDICATES FEW OR NO CLOUDS BELOW 12,000 FEET WITH NO
SIGNIFICANT WEATHER AND/OR OBSTRUCTIONS TO VISIBILITY.

ARZ001-003-010-029-160100-
NORTHWEST ARKANSAS
  
CITY           SKY/WX    TMP DP  RH WIND       PRES   REMARKS
FAYETTEVILLE   CLEAR     75  68  78 SW7       30.13S                  
6HR MIN TEMP:  71; 6HR MAX TEMP:  79;                                

FORT SMITH     CLOUDY    77  69  76 SW3       30.10F                  
6HR MIN TEMP:  72; 6HR MAX TEMP:  79;                                

HARRISON       CLEAR     75  66  73 W3        30.12S                  
6HR MIN TEMP:  74; 6HR MAX TEMP:  80;                                

BENTONVILLE    PTCLDY    77  66  69 SW6       30.13F                  
6HR MIN TEMP:  72; 6HR MAX TEMP:  81;                                

ROGERS         PTCLDY    77  66  68 SW8       30.13S                  
6HR MIN TEMP:  72; 6HR MAX TEMP:  80;                                

SILOAM SPGS    PTCLDY    77  64  65 SW3       30.13F                  
6HR MIN TEMP:  72; 6HR MAX TEMP:  81;                                

HIGHFILL       PTCLDY    76  67  73 SW6       30.12F                  
6HR MIN TEMP:  73; 6HR MAX TEMP:  80;                                

SPRINGDALE     MOCLDY    77  68  73 SW6       30.15S                  
$$

ARZ004-005-016-160100-
NORTH CENTRAL ARKANSAS
  
CITY           SKY/WX    TMP DP  RH WIND       PRES   REMARKS
BATESVILLE     CLOUDY    75  64  69 S3        30.09F                  
6HR MIN TEMP:  70; 6HR MAX TEMP:  77;                                

FLIPPIN        CLEAR     77  66  69 SW5       30.09F                  
6HR MIN TEMP:  72; 6HR MAX TEMP:  79;                                

MTN HOME       CLEAR     75  69  81 S5        30.09S                  
6HR MIN TEMP:  70; 6HR MAX TEMP:  79; 6HR PCP: TRACE;                

$$

ARZ040-041-160100-
WEST CENTRAL ARKANSAS
  
CITY           SKY/WX    TMP DP  RH WIND       PRES   REMARKS
MENA           CLOUDY    77  70  78 CALM      30.14S                  
MOUNT IDA      CLOUDY    73  69  87 CALM      30.11S                  
6HR MIN TEMP:  73; 6HR MAX TEMP:  77;                                

$$

ARZ009-017-025-026-028-160100-
NORTHEAST ARKANSAS
  
CITY           SKY/WX    TMP DP  RH WIND       PRES   REMARKS
CORNING          N/A     72  68  88 SW7       30.08F                  
JONESBORO      CLOUDY    76  65  68 SW9       30.09S                  
6HR MIN TEMP:  72; 6HR MAX TEMP:  78; 6HR PCP: TRACE;                

NEWPORT        CLOUDY    76  66  71 SW6       30.10S                  
6HR MIN TEMP:  75; 6HR MAX TEMP:  81; 6HR PCP: TRACE;                

WALNUT RIDGE   MOCLDY    70  66  88 SW5       30.08S                  
6HR MIN TEMP:  64; 6HR MAX TEMP:  72;                                

BLYTHEVILLE    CLOUDY    72  67  84 CALM      30.09S                  
6HR MIN TEMP:  72; 6HR MAX TEMP:  76; 6HR PCP: TRACE;                

$$

ARZ022-023-033-042-044-160100-
CENTRAL ARKANSAS
  
CITY           SKY/WX    TMP DP  RH WIND       PRES   REMARKS
LITTLE ROCK    CLOUDY    76  65  68 N6        30.12R                  
6HR MIN TEMP:  76; 6HR MAX TEMP:  78; 6HR PCP: TRACE;                

N LITTLE ROCK  MOCLDY    73  69  87 CALM      30.12R                  
6HR MIN TEMP:  73; 6HR MAX TEMP:  76;                                

JACKSONVILLE   MOCLDY    74  66  76 W2        30.11F                  
6HR MIN TEMP:  74; 6HR MAX TEMP:  76; 6HR PCP: TRACE;                

SEARCY         CLOUDY    75  66  73 CALM      30.12S                  
6HR MIN TEMP:  75; 6HR MAX TEMP:  78;                                

HOT SPRINGS    CLOUDY    75  67  76 NE3       30.12S                  
6HR MIN TEMP:  75; 6HR MAX TEMP:  77; 6HR PCP: TRACE;                

RUSSELLVILLE   MOCLDY    73  68  84 CALM      30.11S                  
6HR MIN TEMP:  73; 6HR MAX TEMP:  78;                                

CLINTON        FAIR      73  70  88 CALM      30.12S                  
$$

ARZ036-160100-
EAST ARKANSAS
  
CITY           SKY/WX    TMP DP  RH WIND       PRES   REMARKS
WEST MEMPHIS   CLOUDY    75  67  76 SW3       30.08S                  
6HR MIN TEMP:  75; 6HR MAX TEMP:  82; 6HR PCP: TRACE;                

$$

ARZ050-053-066-070-073-160100-
SOUTHWEST ARKANSAS
  
CITY           SKY/WX    TMP DP  RH WIND       PRES   REMARKS
ARKADELPHIA    FAIR      75  70  85 CALM      30.12S                  
6HR MIN TEMP:  75; 6HR MAX TEMP:  78;                                

CAMDEN         MOCLDY    75  68  78 N3        30.10F                  
TEXARKANA      MOCLDY    77  71  82 NE3       30.11S                  
6HR MIN TEMP:  77; 6HR MAX TEMP:  83;                                

EL DORADO      MOCLDY    77  70  79 N3        30.10S                  
6HR MIN TEMP:  77; 6HR MAX TEMP:  82;                                

DE QUEEN       MOCLDY    76  69  79 SE3       30.10S                  
6HR MIN TEMP:  74; 6HR MAX TEMP:  79;                                

$$

ARZ056-057-069-160100-
SOUTHEAST ARKANSAS
  
CITY           SKY/WX    TMP DP  RH WIND       PRES   REMARKS
PINE BLUFF     CLOUDY    76  66  71 W5        30.11S                  
6HR MIN TEMP:  76; 6HR MAX TEMP:  81;                                

STUTTGART      CLOUDY    73  64  73 NW6       30.12R                  
6HR MIN TEMP:  73; 6HR MAX TEMP:  81;                                

MONTICELLO     CLOUDY    78  69  73 NW3       30.10S                  
6HR MIN TEMP:  78; 6HR MAX TEMP:  83;                                


$$




USA.gov is the U.S. government's official web portal to all federal, state and local government web resources and services.